User: anonymous   Login
Location: Gaast
(52.9002°N, 5.8891°E)
Time: 08:32:25
(UTC+00:00)
Language:

Cosmos 2151 Rocket - Orbit

View from above orbital plane
View from above orbital plane
View from above satellite
View from above satellite

Ground track
Ground track

The orbit is defined by the following mean orbital elements,

1 21423U          26017.97756620 +.00000000 +00000-0 +42705-4 0 00005
2 21423  82.4926 267.7461 0018269  50.9529 309.3307 14.81776172    03
Epoch (UTC): 17 January 2026 23:27:41
Eccentricity: 0.0018269
inclination: 82.4926°
perigee height: 611 km
apogee height: 637 km
right ascension of ascending node: 267.7461°
argument of perigee: 50.9529°
revolutions per day: 14.81776172
mean anomaly at epoch: 309.3307°

The dashed part of the orbit path shows where the satellite is in the earth's shadow,  

DLR